Data No.,UTC Date,UTC Time,Latitude,Longitude,Course(deg),Temp(degC),Sal(psu)
35,2017/9/23,11:26:00,42-36.52N,141-36.85E,187,17.9782,32.5606
36,2017/9/23,11:27:00,42-36.26N,141-36.83E,182,17.7722,32.414
37,2017/9/23,11:28:00,42-35.98N,141-36.83E,177,17.6942,32.4603
38,2017/9/23,11:29:00,42-35.70N,141-36.86E,179,17.6333,32.6538
39,2017/9/23,11:30:00,42-35.42N,141-36.85E,181,17.6177,32.8426
40,2017/9/23,11:31:00,42-35.14N,141-36.84E,181,17.5802,32.9366
41,2017/9/23,11:32:00,42-34.85N,141-36.83E,180,17.6079,32.9713
42,2017/9/23,11:33:00,42-34.57N,141-36.83E,180,17.6577,33.0349
43,2017/9/23,11:34:00,42-34.28N,141-36.82E,181,17.6952,33.1365
44,2017/9/23,11:35:00,42-33.98N,141-36.82E,179,17.8372,33.2228
45,2017/9/23,11:36:00,42-33.70N,141-36.82E,180,17.8911,33.2994
46,2017/9/23,11:37:00,42-33.40N,141-36.82E,180,17.8441,33.4354
47,2017/9/23,11:38:00,42-33.11N,141-36.83E,179,17.8282,33.4901
48,2017/9/23,11:39:00,42-32.82N,141-36.83E,179,17.8574,33.5164
49,2017/9/23,11:40:00,42-32.52N,141-36.83E,179,17.8188,33.5344
50,2017/9/23,11:41:00,42-32.23N,141-36.83E,180,17.7725,33.5479
51,2017/9/23,11:42:00,42-31.94N,141-36.83E,180,17.7095,33.5601
52,2017/9/23,11:43:00,42-31.66N,141-36.83E,180,17.6328,33.5821
53,2017/9/23,11:44:00,42-31.39N,141-36.83E,179,17.6215,33.6106
54,2017/9/23,11:45:00,42-31.10N,141-36.83E,179,17.6077,33.6406
55,2017/9/23,11:46:00,42-30.82N,141-36.84E,179,17.5829,33.6531
56,2017/9/23,11:47:00,42-30.54N,141-36.85E,179,17.5773,33.6578
57,2017/9/23,11:48:00,42-30.25N,141-36.86E,177,17.5595,33.6603
58,2017/9/23,11:49:00,42-29.97N,141-36.87E,178,17.492,33.6573
59,2017/9/23,11:50:00,42-29.69N,141-36.88E,178,17.4303,33.6555
60,2017/9/23,11:51:00,42-29.40N,141-36.90E,177,17.4074,33.6502
61,2017/9/23,11:52:00,42-29.11N,141-36.91E,177,17.4019,33.6447
62,2017/9/23,11:53:00,42-28.83N,141-36.94E,174,17.4213,33.6421
63,2017/9/23,11:54:00,42-28.53N,141-36.99E,174,17.4422,33.6406
64,2017/9/23,11:55:00,42-28.24N,141-37.02E,175,17.4514,33.6377
65,2017/9/23,11:56:00,42-27.95N,141-37.04E,178,17.4538,33.6378
66,2017/9/23,11:57:00,42-27.65N,141-37.05E,178,17.4651,33.6377
67,2017/9/23,11:58:00,42-27.36N,141-37.06E,179,17.4847,33.6356
68,2017/9/23,11:59:00,42-27.06N,141-37.06E,180,17.4696,33.6302
69,2017/9/23,12:00:00,42-26.78N,141-37.04E,182,17.4787,33.6248
70,2017/9/23,12:01:00,42-26.50N,141-37.02E,183,17.4621,33.6176
71,2017/9/23,12:02:00,42-26.20N,141-37.00E,183,17.4562,33.611
72,2017/9/23,12:03:00,42-25.91N,141-36.96E,184,17.4333,33.6038
73,2017/9/23,12:04:00,42-25.63N,141-36.94E,183,17.3931,33.5977
74,2017/9/23,12:05:00,42-25.33N,141-36.90E,185,17.4091,33.5955
75,2017/9/23,12:06:00,42-25.04N,141-36.86E,186,17.4476,33.6036
76,2017/9/23,12:07:00,42-24.75N,141-36.81E,186,17.4192,33.6122
77,2017/9/23,12:08:00,42-24.47N,141-36.77E,186,17.4308,33.6189
78,2017/9/23,12:09:00,42-24.18N,141-36.73E,186,17.4568,33.6216
79,2017/9/23,12:10:00,42-23.90N,141-36.69E,185,17.5686,33.6143
80,2017/9/23,12:11:00,42-23.61N,141-36.65E,186,17.5979,33.5965
81,2017/9/23,12:12:00,42-23.33N,141-36.61E,186,17.6063,33.5689
82,2017/9/23,12:13:00,42-23.04N,141-36.57E,185,17.6159,33.5401
83,2017/9/23,12:14:00,42-22.75N,141-36.54E,184,17.6354,33.509
84,2017/9/23,12:15:00,42-22.46N,141-36.50E,185,17.6539,33.4831
85,2017/9/23,12:16:00,42-22.16N,141-36.46E,185,17.6768,33.4672
86,2017/9/23,12:17:00,42-21.86N,141-36.43E,185,17.6976,33.4425
87,2017/9/23,12:18:00,42-21.57N,141-36.39E,184,17.7094,33.4213
88,2017/9/23,12:19:00,42-21.25N,141-36.36E,185,17.7059,33.4077
89,2017/9/23,12:20:00,42-20.95N,141-36.32E,184,17.7079,33.4042
90,2017/9/23,12:21:00,42-20.63N,141-36.29E,184,17.7058,33.4043
91,2017/9/23,12:22:00,42-20.33N,141-36.25E,184,17.6815,33.406
92,2017/9/23,12:23:00,42-20.02N,141-36.22E,184,17.6347,33.4086
93,2017/9/23,12:24:00,42-19.71N,141-36.19E,184,17.6419,33.4137
94,2017/9/23,12:25:00,42-19.41N,141-36.16E,184,17.6532,33.4194
95,2017/9/23,12:26:00,42-19.11N,141-36.13E,184,17.6585,33.4087
96,2017/9/23,12:27:00,42-18.80N,141-36.09E,184,17.6562,33.3938
97,2017/9/23,12:28:00,42-18.51N,141-36.07E,184,17.6625,33.3759
98,2017/9/23,12:29:00,42-18.22N,141-36.04E,184,17.665,33.3595
99,2017/9/23,12:30:00,42-17.92N,141-36.01E,184,17.6667,33.3522
100,2017/9/23,12:31:00,42-17.62N,141-35.98E,184,17.661,33.3516
101,2017/9/23,12:32:00,42-17.34N,141-35.95E,184,17.6445,33.3677
102,2017/9/23,12:33:00,42-17.04N,141-35.92E,183,17.662,33.3904
103,2017/9/23,12:34:00,42-16.75N,141-35.90E,183,17.7147,33.4079
104,2017/9/23,12:35:00,42-16.47N,141-35.87E,183,17.734,33.4143
105,2017/9/23,12:36:00,42-16.18N,141-35.84E,183,17.7496,33.4078
106,2017/9/23,12:37:00,42-15.90N,141-35.82E,184,17.7582,33.4025
107,2017/9/23,12:38:00,42-15.61N,141-35.79E,184,17.7652,33.3857
108,2017/9/23,12:39:00,42-15.32N,141-35.76E,184,17.7869,33.3569
109,2017/9/23,12:40:00,42-15.05N,141-35.73E,184,17.8063,33.3383
110,2017/9/23,12:41:00,42-14.76N,141-35.70E,184,17.8466,33.3496
111,2017/9/23,12:42:00,42-14.48N,141-35.67E,184,17.8996,33.369
112,2017/9/23,12:43:00,42-14.20N,141-35.64E,184,17.9583,33.3804
113,2017/9/23,12:44:00,42-13.91N,141-35.61E,184,18.0115,33.3958
114,2017/9/23,12:45:00,42-13.63N,141-35.58E,184,18.0848,33.4141
115,2017/9/23,12:46:00,42-13.35N,141-35.56E,184,18.1293,33.4286
116,2017/9/23,12:47:00,42-13.06N,141-35.53E,184,18.168,33.4376
117,2017/9/23,12:48:00,42-12.78N,141-35.50E,184,18.1869,33.4507
118,2017/9/23,12:49:00,42-12.49N,141-35.47E,184,18.2077,33.4658
119,2017/9/23,12:50:00,42-12.21N,141-35.44E,184,18.2273,33.4788
120,2017/9/23,12:51:00,42-11.93N,141-35.41E,184,18.2336,33.4891
121,2017/9/23,12:52:00,42-11.65N,141-35.38E,184,18.2218,33.4956
122,2017/9/23,12:53:00,42-11.36N,141-35.35E,184,18.1949,33.4984
123,2017/9/23,12:54:00,42-11.08N,141-35.32E,185,18.1508,33.4977
124,2017/9/23,12:55:00,42-10.79N,141-35.29E,185,18.1449,33.4939
125,2017/9/23,12:56:00,42-10.51N,141-35.25E,184,18.1396,33.4877
126,2017/9/23,12:57:00,42-10.23N,141-35.22E,185,18.1421,33.4827
127,2017/9/23,12:58:00,42-09.94N,141-35.19E,185,18.1561,33.4787
128,2017/9/23,12:59:00,42-09.66N,141-35.15E,185,18.1513,33.4776
129,2017/9/23,13:00:00,42-09.36N,141-35.11E,185,18.1487,33.4806
130,2017/9/23,13:01:00,42-09.08N,141-35.08E,185,18.1375,33.485
131,2017/9/23,13:02:00,42-08.80N,141-35.04E,185,18.1194,33.4864
132,2017/9/23,13:03:00,42-08.52N,141-35.00E,184,18.115,33.4856
133,2017/9/23,13:04:00,42-08.22N,141-34.97E,185,18.0964,33.4855
134,2017/9/23,13:05:00,42-07.94N,141-34.93E,185,18.0859,33.4868
135,2017/9/23,13:06:00,42-07.65N,141-34.89E,185,18.069,33.4877
136,2017/9/23,13:07:00,42-07.36N,141-34.85E,186,18.0378,33.4879
137,2017/9/23,13:08:00,42-07.07N,141-34.81E,185,18.0251,33.4874
138,2017/9/23,13:09:00,42-06.78N,141-34.77E,185,18.0139,33.4877
139,2017/9/23,13:10:00,42-06.48N,141-34.73E,186,17.9751,33.4902
140,2017/9/23,13:11:00,42-06.20N,141-34.69E,186,17.9525,33.4928
141,2017/9/23,13:12:00,42-05.91N,141-34.64E,185,17.9128,33.4973
142,2017/9/23,13:13:00,42-05.62N,141-34.60E,186,17.8421,33.5003
143,2017/9/23,13:14:00,42-05.33N,141-34.56E,186,17.7698,33.5015
144,2017/9/23,13:15:00,42-05.04N,141-34.52E,186,17.7043,33.5017
145,2017/9/23,13:16:00,42-04.75N,141-34.48E,185,17.6329,33.5112
146,2017/9/23,13:17:00,42-04.46N,141-34.45E,183,17.5663,33.5244
147,2017/9/23,13:18:00,42-04.17N,141-34.43E,182,17.5876,33.5417
148,2017/9/23,13:19:00,42-03.88N,141-34.42E,181,17.6444,33.5513
149,2017/9/23,13:20:00,42-03.60N,141-34.42E,181,17.6605,33.5471
150,2017/9/23,13:21:00,42-03.30N,141-34.41E,181,17.6601,33.537
151,2017/9/23,13:22:00,42-03.02N,141-34.40E,181,17.6745,33.5286
152,2017/9/23,13:23:00,42-02.72N,141-34.39E,180,17.6585,33.5184
153,2017/9/23,13:24:00,42-02.43N,141-34.39E,181,17.6393,33.5167
154,2017/9/23,13:25:00,42-02.14N,141-34.38E,181,17.6116,33.5193
155,2017/9/23,13:26:00,42-01.83N,141-34.37E,181,17.5769,33.5235
156,2017/9/23,13:27:00,42-01.53N,141-34.36E,181,17.5438,33.5378
157,2017/9/23,13:28:00,42-01.23N,141-34.35E,182,17.5406,33.5501
158,2017/9/23,13:29:00,42-00.92N,141-34.34E,181,17.541,33.5486
159,2017/9/23,13:30:00,42-00.62N,141-34.33E,180,17.5307,33.5442
160,2017/9/23,13:31:00,42-00.32N,141-34.33E,180,17.5223,33.5347
161,2017/9/23,13:32:00,42-00.00N,141-34.32E,181,17.5219,33.523
162,2017/9/23,13:33:00,41-59.70N,141-34.31E,180,17.5175,33.5034
163,2017/9/23,13:34:00,41-59.40N,141-34.31E,180,17.4935,33.4938
164,2017/9/23,13:35:00,41-59.10N,141-34.31E,180,17.478,33.4949
165,2017/9/23,13:36:00,41-58.79N,141-34.30E,180,17.4308,33.4952
166,2017/9/23,13:37:00,41-58.50N,141-34.30E,180,17.3884,33.5048
167,2017/9/23,13:38:00,41-58.19N,141-34.30E,180,17.4173,33.5142
168,2017/9/23,13:39:00,41-57.90N,141-34.29E,180,17.4252,33.5052
169,2017/9/23,13:40:00,41-57.59N,141-34.29E,180,17.4193,33.4937
170,2017/9/23,13:41:00,41-57.29N,141-34.29E,180,17.4287,33.4933
171,2017/9/23,13:42:00,41-56.99N,141-34.28E,180,17.4123,33.4952
172,2017/9/23,13:43:00,41-56.69N,141-34.28E,180,17.3871,33.4982
173,2017/9/23,13:44:00,41-56.39N,141-34.28E,180,17.3619,33.5044
174,2017/9/23,13:45:00,41-56.09N,141-34.27E,180,17.3355,33.5157
175,2017/9/23,13:46:00,41-55.78N,141-34.27E,180,17.3265,33.5367
176,2017/9/23,13:47:00,41-55.48N,141-34.27E,179,17.3227,33.5554
177,2017/9/23,13:48:00,41-55.19N,141-34.27E,180,17.3325,33.5796
178,2017/9/23,13:49:00,41-54.88N,141-34.26E,180,17.3236,33.5713
179,2017/9/23,13:50:00,41-54.59N,141-34.26E,180,17.3639,33.5565
180,2017/9/23,13:51:00,41-54.28N,141-34.25E,181,17.411,33.5345
181,2017/9/23,13:52:00,41-53.99N,141-34.24E,180,17.4726,33.5145
182,2017/9/23,13:53:00,41-53.69N,141-34.23E,181,17.5201,33.5134
183,2017/9/23,13:54:00,41-53.39N,141-34.23E,181,17.5677,33.5199
184,2017/9/23,13:55:00,41-53.09N,141-34.22E,181,17.6437,33.5237
185,2017/9/23,13:56:00,41-52.79N,141-34.20E,182,17.6755,33.5381
186,2017/9/23,13:57:00,41-52.49N,141-34.19E,180,17.6154,33.5485
187,2017/9/23,13:58:00,41-52.19N,141-34.19E,180,17.8036,33.5572
188,2017/9/23,13:59:00,41-51.90N,141-34.18E,181,18.0866,33.5759
189,2017/9/23,14:00:00,41-51.60N,141-34.17E,181,18.3684,33.6184
190,2017/9/23,14:01:00,41-51.32N,141-34.16E,181,18.5209,33.6565
191,2017/9/23,14:02:00,41-51.02N,141-34.15E,181,18.5682,33.6812
192,2017/9/23,14:03:00,41-50.72N,141-34.14E,180,18.5479,33.6927
193,2017/9/23,14:04:00,41-50.42N,141-34.13E,181,18.4803,33.7036
194,2017/9/23,14:05:00,41-50.12N,141-34.12E,181,18.2741,33.7439
195,2017/9/23,14:06:00,41-49.82N,141-34.11E,181,18.1741,33.7715
196,2017/9/23,14:07:00,41-49.52N,141-34.11E,179,17.7838,33.8438
197,2017/9/23,14:08:00,41-49.22N,141-34.12E,176,17.1203,33.9201
198,2017/9/23,14:09:00,41-48.93N,141-34.14E,177,17.7777,33.9799
199,2017/9/23,14:10:00,41-48.64N,141-34.15E,177,18.3216,33.9805
200,2017/9/23,14:11:00,41-48.35N,141-34.18E,175,19.0641,33.9316
201,2017/9/23,14:12:00,41-48.07N,141-34.21E,175,19.5857,33.8832
202,2017/9/23,14:13:00,41-47.79N,141-34.25E,175,19.6854,33.8361
203,2017/9/23,14:14:00,41-47.50N,141-34.29E,173,19.8926,33.824
204,2017/9/23,14:15:00,41-47.22N,141-34.33E,172,20.0346,33.8075
205,2017/9/23,14:16:00,41-46.94N,141-34.38E,172,20.2356,33.7893
206,2017/9/23,14:17:00,41-46.66N,141-34.42E,174,20.3095,33.7812
207,2017/9/23,14:18:00,41-46.38N,141-34.46E,173,20.2287,33.8252
208,2017/9/23,14:19:00,41-46.10N,141-34.50E,173,20.2189,33.8439
209,2017/9/23,14:20:00,41-45.83N,141-34.54E,174,20.4229,33.8258
210,2017/9/23,14:21:00,41-45.56N,141-34.58E,173,20.5457,33.8163
211,2017/9/23,14:22:00,41-45.28N,141-34.63E,174,20.5873,33.8213
212,2017/9/23,14:23:00,41-45.00N,141-34.67E,172,20.5859,33.8309
213,2017/9/23,14:24:00,41-44.73N,141-34.72E,171,20.6454,33.8314
214,2017/9/23,14:25:00,41-44.46N,141-34.78E,171,20.7735,33.8307
215,2017/9/23,14:26:00,41-44.18N,141-34.83E,172,20.8153,33.8297
216,2017/9/23,14:27:00,41-43.92N,141-34.87E,173,20.8492,33.8324
217,2017/9/23,14:28:00,41-43.64N,141-34.90E,174,20.8412,33.8304
218,2017/9/23,14:29:00,41-43.37N,141-34.94E,173,20.9166,33.8333
219,2017/9/23,14:30:00,41-43.10N,141-34.97E,175,20.9759,33.8364
220,2017/9/23,14:31:00,41-42.82N,141-35.01E,173,20.9986,33.8353
221,2017/9/23,14:32:00,41-42.54N,141-35.04E,175,20.9554,33.8327
222,2017/9/23,14:33:00,41-42.27N,141-35.07E,175,20.9641,33.8326
223,2017/9/23,14:34:00,41-41.99N,141-35.10E,175,20.9571,33.8314
224,2017/9/23,14:35:00,41-41.71N,141-35.12E,176,20.91,33.829
225,2017/9/23,14:36:00,41-41.43N,141-35.15E,177,20.89,33.8303
226,2017/9/23,14:37:00,41-41.14N,141-35.15E,179,20.8522,33.8377
227,2017/9/23,14:38:00,41-40.86N,141-35.16E,179,20.8819,33.8503
228,2017/9/23,14:39:00,41-40.57N,141-35.17E,177,20.8694,33.8567
229,2017/9/23,14:40:00,41-40.28N,141-35.18E,178,20.919,33.8507
230,2017/9/23,14:41:00,41-39.99N,141-35.19E,179,20.903,33.8484
231,2017/9/23,14:42:00,41-39.70N,141-35.19E,179,20.8802,33.8463
232,2017/9/23,14:43:00,41-39.40N,141-35.20E,178,20.9232,33.8541
233,2017/9/23,14:44:00,41-39.11N,141-35.20E,179,20.9196,33.8546
234,2017/9/23,14:45:00,41-38.81N,141-35.20E,180,20.9366,33.853
235,2017/9/23,14:46:00,41-38.52N,141-35.20E,180,20.8687,33.8513
236,2017/9/23,14:47:00,41-38.22N,141-35.19E,180,20.8628,33.8505
237,2017/9/23,14:48:00,41-37.92N,141-35.19E,181,20.991,33.8547
238,2017/9/23,14:49:00,41-37.63N,141-35.18E,182,20.874,33.851
239,2017/9/23,14:50:00,41-37.33N,141-35.17E,180,20.2166,33.8455
240,2017/9/23,14:51:00,41-37.04N,141-35.18E,179,19.806,33.8792
241,2017/9/23,14:52:00,41-36.75N,141-35.17E,180,19.7432,33.9164
242,2017/9/23,14:53:00,41-36.46N,141-35.17E,181,19.7521,33.9355
243,2017/9/23,14:54:00,41-36.17N,141-35.16E,180,19.7693,33.9378
244,2017/9/23,14:55:00,41-35.89N,141-35.16E,179,19.8999,33.932
245,2017/9/23,14:56:00,41-35.61N,141-35.16E,179,20.1124,33.9206
246,2017/9/23,14:57:00,41-35.33N,141-35.16E,180,20.1833,33.8904
247,2017/9/23,14:58:00,41-35.06N,141-35.16E,179,20.2223,33.8793
248,2017/9/23,14:59:00,41-34.78N,141-35.16E,179,20.2225,33.8803
249,2017/9/23,15:00:00,41-34.51N,141-35.16E,180,20.2401,33.8844
250,2017/9/23,15:01:00,41-34.23N,141-35.16E,180,20.2461,33.8888
251,2017/9/23,15:02:00,41-33.95N,141-35.15E,180,20.2451,33.8942
252,2017/9/23,15:03:00,41-33.68N,141-35.15E,180,20.2416,33.8985
253,2017/9/23,15:04:00,41-33.39N,141-35.15E,180,20.2506,33.9007
254,2017/9/23,15:05:00,41-33.12N,141-35.14E,181,20.255,33.9015
255,2017/9/23,15:06:00,41-32.84N,141-35.13E,181,20.2595,33.9014
256,2017/9/23,15:07:00,41-32.56N,141-35.12E,180,20.2772,33.9014
257,2017/9/23,15:08:00,41-32.28N,141-35.11E,181,20.3237,33.9006
258,2017/9/23,15:09:00,41-32.00N,141-35.11E,181,20.3417,33.8975
259,2017/9/23,15:10:00,41-31.72N,141-35.10E,181,20.3543,33.8934
260,2017/9/23,15:11:00,41-31.43N,141-35.08E,181,20.3521,33.892
261,2017/9/23,15:12:00,41-31.16N,141-35.07E,182,20.3407,33.8905
262,2017/9/23,15:13:00,41-30.87N,141-35.05E,182,20.3456,33.8845
263,2017/9/23,15:14:00,41-30.59N,141-35.03E,182,20.3482,33.8737
264,2017/9/23,15:15:00,41-30.31N,141-35.01E,182,20.3487,33.8734
265,2017/9/23,15:16:00,41-30.02N,141-34.99E,182,20.3629,33.8742
266,2017/9/23,15:17:00,41-29.75N,141-34.97E,183,20.3775,33.8714
267,2017/9/23,15:18:00,41-29.46N,141-34.95E,183,20.3836,33.8707
268,2017/9/23,15:19:00,41-29.17N,141-34.92E,183,20.3972,33.8694
269,2017/9/23,15:20:00,41-28.88N,141-34.90E,183,20.3979,33.865
270,2017/9/23,15:21:00,41-28.60N,141-34.87E,183,20.3947,33.862
271,2017/9/23,15:22:00,41-28.31N,141-34.85E,183,20.3849,33.8665
272,2017/9/23,15:23:00,41-28.03N,141-34.82E,184,20.394,33.8699
273,2017/9/23,15:24:00,41-27.73N,141-34.79E,184,20.3943,33.8691
274,2017/9/23,15:25:00,41-27.45N,141-34.80E,171,20.3916,33.8692
275,2017/9/23,15:26:00,41-27.18N,141-34.92E,159,20.377,33.8693
276,2017/9/23,15:27:00,41-26.91N,141-35.07E,157,20.3699,33.8684
277,2017/9/23,15:28:00,41-26.65N,141-35.20E,159,20.3683,33.869
278,2017/9/23,15:29:00,41-26.37N,141-35.34E,161,20.3495,33.8695
279,2017/9/23,15:30:00,41-26.08N,141-35.45E,163,20.3304,33.8701
280,2017/9/23,15:31:00,41-25.80N,141-35.56E,164,20.2749,33.8714
281,2017/9/23,15:32:00,41-25.52N,141-35.66E,165,20.1874,33.8711
282,2017/9/23,15:33:00,41-25.25N,141-35.75E,165,20.11,33.8729
283,2017/9/23,15:34:00,41-24.98N,141-35.85E,163,19.8147,33.8747
284,2017/9/23,15:35:00,41-24.70N,141-35.96E,164,19.6407,33.8782
285,2017/9/23,15:36:00,41-24.43N,141-36.05E,165,19.5854,33.896
286,2017/9/23,15:37:00,41-24.16N,141-36.15E,165,19.5302,33.9043
287,2017/9/23,15:38:00,41-23.89N,141-36.24E,165,19.4738,33.9076
288,2017/9/23,15:39:00,41-23.62N,141-36.34E,164,19.4378,33.9109
289,2017/9/23,15:40:00,41-23.34N,141-36.45E,163,19.4029,33.9166
290,2017/9/23,15:41:00,41-23.07N,141-36.55E,164,19.307,33.9274
291,2017/9/23,15:42:00,41-22.80N,141-36.65E,164,19.1793,33.9355
292,2017/9/23,15:43:00,41-22.52N,141-36.75E,163,19.0583,33.9312
293,2017/9/23,15:44:00,41-22.26N,141-36.86E,164,18.9966,33.9313
294,2017/9/23,15:45:00,41-21.98N,141-36.95E,165,18.9403,33.9259
295,2017/9/23,15:46:00,41-21.71N,141-37.05E,164,18.9177,33.9221
296,2017/9/23,15:47:00,41-21.44N,141-37.15E,163,18.7589,33.9213
297,2017/9/23,15:48:00,41-21.17N,141-37.26E,163,18.5392,33.9179
298,2017/9/23,15:49:00,41-20.89N,141-37.36E,163,18.4854,33.8556
299,2017/9/23,15:50:00,41-20.62N,141-37.46E,164,18.4695,33.8112
300,2017/9/23,15:51:00,41-20.34N,141-37.57E,164,18.4852,33.7845
301,2017/9/23,15:52:00,41-20.07N,141-37.67E,163,18.5287,33.774
302,2017/9/23,15:53:00,41-19.80N,141-37.78E,163,18.5725,33.778
303,2017/9/23,15:54:00,41-19.52N,141-37.89E,163,18.6477,33.7901
304,2017/9/23,15:55:00,41-19.24N,141-38.00E,163,18.8901,33.8078
305,2017/9/23,15:56:00,41-18.97N,141-38.11E,163,18.9812,33.8698
306,2017/9/23,15:57:00,41-18.69N,141-38.22E,162,18.9879,33.931
307,2017/9/23,15:58:00,41-18.42N,141-38.33E,163,18.7884,33.9552
308,2017/9/23,15:59:00,41-18.15N,141-38.43E,164,18.6814,33.9526
309,2017/9/23,16:00:00,41-17.87N,141-38.54E,163,18.4705,33.9115
310,2017/9/23,16:01:00,41-17.61N,141-38.65E,163,18.2955,33.8798
311,2017/9/23,16:02:00,41-17.33N,141-38.75E,163,18.1851,33.8124
312,2017/9/23,16:03:00,41-17.06N,141-38.86E,163,18.1147,33.7669
313,2017/9/23,16:04:00,41-16.79N,141-38.96E,163,18.0286,33.7267
314,2017/9/23,16:05:00,41-16.52N,141-39.07E,162,18.0078,33.6951
315,2017/9/23,16:06:00,41-16.24N,141-39.19E,162,18.0281,33.674
316,2017/9/23,16:07:00,41-15.97N,141-39.30E,162,18.0552,33.6693
317,2017/9/23,16:08:00,41-15.70N,141-39.41E,162,18.0661,33.6944
318,2017/9/23,16:09:00,41-15.42N,141-39.52E,162,18.124,33.6981
319,2017/9/23,16:10:00,41-15.16N,141-39.64E,161,18.1832,33.733
320,2017/9/23,16:11:00,41-14.88N,141-39.76E,161,18.1897,33.7839
321,2017/9/23,16:12:00,41-14.61N,141-39.88E,161,18.2327,33.7885
322,2017/9/23,16:13:00,41-14.34N,141-39.99E,162,18.2944,33.7982
323,2017/9/23,16:14:00,41-14.07N,141-40.11E,162,18.3126,33.8276
324,2017/9/23,16:15:00,41-13.80N,141-40.22E,161,18.3373,33.8797
325,2017/9/23,16:16:00,41-13.53N,141-40.34E,162,18.375,33.9063
326,2017/9/23,16:17:00,41-13.26N,141-40.45E,162,18.4173,33.9277
327,2017/9/23,16:18:00,41-12.99N,141-40.56E,162,18.4406,33.9458
328,2017/9/23,16:19:00,41-12.72N,141-40.68E,162,18.4972,33.9506
329,2017/9/23,16:20:00,41-12.44N,141-40.79E,162,18.5878,33.9622
330,2017/9/23,16:21:00,41-12.17N,141-40.90E,162,18.6041,33.9829
331,2017/9/23,16:22:00,41-11.90N,141-41.02E,162,18.5952,33.9873
332,2017/9/23,16:23:00,41-11.62N,141-41.13E,162,18.5999,33.9845
333,2017/9/23,16:24:00,41-11.36N,141-41.24E,162,18.6088,33.9792
334,2017/9/23,16:25:00,41-11.09N,141-41.35E,161,18.6506,33.9752
335,2017/9/23,16:26:00,41-10.81N,141-41.47E,161,18.7407,33.9709
336,2017/9/23,16:27:00,41-10.54N,141-41.59E,162,18.8249,33.9527
337,2017/9/23,16:28:00,41-10.27N,141-41.71E,162,18.9207,33.9416
338,2017/9/23,16:29:00,41-10.00N,141-41.82E,162,19.026,33.9398
339,2017/9/23,16:30:00,41-09.74N,141-41.93E,161,19.114,33.94
340,2017/9/23,16:31:00,41-09.46N,141-42.05E,162,19.2086,33.941
341,2017/9/23,16:32:00,41-09.20N,141-42.16E,162,19.2811,33.9387
342,2017/9/23,16:33:00,41-08.93N,141-42.28E,162,19.3263,33.9275
343,2017/9/23,16:34:00,41-08.67N,141-42.39E,162,19.3542,33.9214
344,2017/9/23,16:35:00,41-08.40N,141-42.49E,162,19.3748,33.9218
345,2017/9/23,16:36:00,41-08.13N,141-42.61E,162,19.3914,33.9245
346,2017/9/23,16:37:00,41-07.86N,141-42.72E,162,19.4052,33.9273
347,2017/9/23,16:38:00,41-07.59N,141-42.82E,162,19.4109,33.9312
348,2017/9/23,16:39:00,41-07.32N,141-42.93E,162,19.403,33.9375
349,2017/9/23,16:40:00,41-07.05N,141-43.04E,163,19.3967,33.9432
350,2017/9/23,16:41:00,41-06.78N,141-43.15E,163,19.3774,33.9475
351,2017/9/23,16:42:00,41-06.51N,141-43.26E,163,19.3493,33.9509
352,2017/9/23,16:43:00,41-06.24N,141-43.36E,163,19.3165,33.953
353,2017/9/23,16:44:00,41-05.97N,141-43.47E,163,19.3046,33.9519
354,2017/9/23,16:45:00,41-05.69N,141-43.58E,163,19.2972,33.9535
355,2017/9/23,16:46:00,41-05.42N,141-43.69E,163,19.2839,33.9557
356,2017/9/23,16:47:00,41-05.15N,141-43.80E,162,19.2332,33.9585
357,2017/9/23,16:48:00,41-04.88N,141-43.90E,163,19.181,33.9594
358,2017/9/23,16:49:00,41-04.60N,141-44.01E,163,19.1624,33.9568
359,2017/9/23,16:50:00,41-04.33N,141-44.12E,163,19.1695,33.9601
360,2017/9/23,16:51:00,41-04.06N,141-44.22E,162,19.1938,33.9609
361,2017/9/23,16:52:00,41-03.79N,141-44.33E,163,19.1987,33.9664
362,2017/9/23,16:53:00,41-03.52N,141-44.44E,163,19.1861,33.9675
363,2017/9/23,16:54:00,41-03.25N,141-44.54E,163,19.1753,33.9605
364,2017/9/23,16:55:00,41-02.98N,141-44.64E,163,19.1651,33.9527
365,2017/9/23,16:56:00,41-02.71N,141-44.75E,163,19.1818,33.9468
366,2017/9/23,16:57:00,41-02.44N,141-44.85E,163,19.175,33.9434
367,2017/9/23,16:58:00,41-02.17N,141-44.96E,162,19.1702,33.9434
368,2017/9/23,16:59:00,41-01.90N,141-45.07E,163,19.1188,33.9428
369,2017/9/23,17:00:00,41-01.64N,141-45.17E,163,19.119,33.9327
370,2017/9/23,17:01:00,41-01.36N,141-45.27E,163,19.1449,33.9211
371,2017/9/23,17:02:00,41-01.09N,141-45.38E,163,19.1584,33.9231
372,2017/9/23,17:03:00,41-00.82N,141-45.48E,163,19.1469,33.926
373,2017/9/23,17:04:00,41-00.55N,141-45.58E,163,19.1431,33.9295
374,2017/9/23,17:05:00,41-00.28N,141-45.68E,164,19.1139,33.9327
375,2017/9/23,17:06:00,41-00.01N,141-45.78E,164,19.1679,33.9315
376,2017/9/23,17:07:00,40-59.74N,141-45.88E,164,19.1733,33.9276
377,2017/9/23,17:08:00,40-59.47N,141-45.98E,164,19.1289,33.9193
378,2017/9/23,17:09:00,40-59.20N,141-46.08E,164,19.1034,33.9199
379,2017/9/23,17:10:00,40-58.93N,141-46.18E,164,19.0931,33.9258
380,2017/9/23,17:11:00,40-58.66N,141-46.28E,164,19.1095,33.9335
381,2017/9/23,17:12:00,40-58.39N,141-46.38E,163,19.113,33.944
382,2017/9/23,17:13:00,40-58.12N,141-46.48E,163,19.1289,33.9561
383,2017/9/23,17:14:00,40-57.85N,141-46.58E,163,19.139,33.9659
384,2017/9/23,17:15:00,40-57.57N,141-46.69E,164,19.1418,33.9759
385,2017/9/23,17:16:00,40-57.30N,141-46.79E,163,19.0989,33.9869
386,2017/9/23,17:17:00,40-57.03N,141-46.90E,163,19.0855,33.9931
387,2017/9/23,17:18:00,40-56.76N,141-47.01E,163,19.048,33.9887
388,2017/9/23,17:19:00,40-56.49N,141-47.11E,163,18.9991,33.9835
389,2017/9/23,17:20:00,40-56.21N,141-47.22E,163,18.929,33.9778
390,2017/9/23,17:21:00,40-55.93N,141-47.33E,163,18.8435,33.9809
391,2017/9/23,17:22:00,40-55.66N,141-47.43E,163,18.7487,33.987
392,2017/9/23,17:23:00,40-55.39N,141-47.55E,162,18.7107,33.9887
393,2017/9/23,17:24:00,40-55.10N,141-47.66E,162,18.7043,33.9861
394,2017/9/23,17:25:00,40-54.83N,141-47.78E,162,18.7443,33.9875
395,2017/9/23,17:26:00,40-54.55N,141-47.90E,162,18.8427,33.9907
396,2017/9/23,17:27:00,40-54.27N,141-48.02E,161,19.0414,33.9931
397,2017/9/23,17:28:00,40-54.00N,141-48.14E,161,19.1237,33.9853
398,2017/9/23,17:29:00,40-53.71N,141-48.26E,162,19.0654,33.9668
399,2017/9/23,17:30:00,40-53.44N,141-48.37E,162,18.9808,33.9656
400,2017/9/23,17:31:00,40-53.16N,141-48.49E,162,18.9777,33.9428
401,2017/9/23,17:32:00,40-52.88N,141-48.61E,161,18.9805,33.9266
402,2017/9/23,17:33:00,40-52.61N,141-48.73E,161,18.9881,33.9168
403,2017/9/23,17:34:00,40-52.33N,141-48.86E,161,19.0114,33.9117
404,2017/9/23,17:35:00,40-52.05N,141-48.97E,161,19.0237,33.91